Howell, MI

10:52 PM EDT on May 22, 2017 (GMT -0400)
Livingston County

Weather History for KOZW - May, 2013

Change the Weather History Date:

Tuesday, May 28, 2013

  Actual Average Record
Temperature  
Mean Temperature 62 °F -  
Max Temperature 73 °F 68 °F 92 °F (2012)
Min Temperature 51 °F 48 °F 32 °F (2008)
Degree Days  
Heating Degree Days 3    
Growing Degree Days 12 (Base 50)    
Moisture  
Dew Point 61 °F    
Average Humidity 96    
Maximum Humidity 100    
Minimum Humidity 84    
Precipitation  
Precipitation 0.00 in - - ()
Sea Level Pressure  
Sea Level Pressure 29.89 in    
Wind  
Wind Speed 7 mph (SSE)    
Max Wind Speed 12 mph    
Max Gust Speed 16 mph    
Visibility 5 miles    
Events Rain    
Averages and records for this station are not official NWS values.
T = Trace of Precipitation, MM = Missing Value Source: NWS Daily Summary

Daily Weather History Graph

Daily Weather History Graph

Search for Another Location

Airport or City:

Trip Planner

Search our weather history database for the weather conditions in past years. The results will help you decide how hot, cold, wet, or windy it might be!

Date:

Astronomy

May. 28, 2013 Rise Set
Actual Time 6:02 AM EDT 9:04 PM EDT
Civil Twilight 5:29 AM EDT 9:37 PM EDT
Nautical Twilight 4:46 AM EDT 10:21 PM EDT
Astronomical Twilight 3:55 AM EDT 11:12 PM EDT
Moon No Moon Rise 9:52 AM EDT (5/28)
Length of Visible Light 16h 08m
Length of Day
15h 01m
Waning Gibbous, 83% of the Moon is Illuminated
May 28
Waning Gibbous
May 31
Last Quarter
Jun 8
New
Jun 16
First Quarter
Jun 23
Full

Hourly Weather History & Observations

Time (EDT) Temp. Dew Point Humidity Pressure Visibility Wind Dir Wind Speed Gust Speed Precip Events Conditions
12:15 AM 51.8 °F 51.4 °F 99% 29.99 in 10.0 mi ESE 10.4 mph - N/A   Overcast
12:35 AM 52.2 °F 51.8 °F 99% 29.99 in 10.0 mi ESE 6.9 mph - N/A   Overcast
12:55 AM 52.2 °F 51.8 °F 99% 29.99 in 10.0 mi ESE 9.2 mph - N/A   Overcast
1:15 AM 52.3 °F 51.8 °F 98% 29.98 in 10.0 mi SE 10.4 mph 16.1 mph N/A   Overcast
1:34 AM 52.3 °F 51.8 °F 98% 29.98 in 7.0 mi ESE 8.1 mph - N/A   Overcast
1:55 AM 52.7 °F 52.0 °F 97% 29.97 in 7.0 mi ESE 9.2 mph - N/A   Overcast
2:15 AM 52.7 °F 52.2 °F 98% 29.96 in 7.0 mi ESE 9.2 mph - N/A   Overcast
2:34 AM 52.7 °F 52.2 °F 98% 29.96 in 7.0 mi ESE 9.2 mph - N/A   Overcast
2:55 AM 52.7 °F 52.2 °F 98% 29.95 in 5.0 mi ESE 8.1 mph - N/A   Overcast
3:15 AM 52.9 °F 52.3 °F 98% 29.93 in 5.0 mi ESE 9.2 mph - N/A   Overcast
3:34 AM 52.9 °F 52.5 °F 99% 29.95 in 5.0 mi SE 6.9 mph - N/A   Overcast
3:55 AM 53.1 °F 52.7 °F 99% 29.94 in 4.0 mi ESE 5.8 mph - N/A   Overcast
4:15 AM 53.1 °F 52.7 °F 99% 29.93 in 4.0 mi SE 8.1 mph - N/A   Overcast
4:35 AM 53.1 °F 52.7 °F 99% 29.93 in 3.0 mi ESE 6.9 mph - N/A   Overcast
4:55 AM 53.1 °F 52.9 °F 99% 29.93 in 3.0 mi ESE 6.9 mph - N/A   Overcast
5:15 AM 53.2 °F 53.1 °F 99% 29.93 in 3.0 mi ESE 5.8 mph - N/A   Overcast
5:35 AM 53.2 °F 53.1 °F 99% 29.93 in 2.5 mi ESE 6.9 mph - N/A   Overcast
5:55 AM 53.2 °F 53.1 °F 99% 29.93 in 1.8 mi ESE 5.8 mph - N/A   Overcast
6:14 AM 53.2 °F 53.2 °F 100% 29.94 in 1.2 mi SE 4.6 mph - N/A   Overcast
6:35 AM 53.6 °F 53.6 °F 100% 29.93 in 1.0 mi SE 5.8 mph - N/A   Overcast
6:55 AM 53.8 °F 53.8 °F 100% 29.94 in 0.8 mi SE 6.9 mph - N/A   Overcast
7:14 AM 54.1 °F 54.1 °F 100% 29.95 in 1.2 mi SE 4.6 mph - N/A   Overcast
7:35 AM 54.5 °F 54.5 °F 100% 29.96 in 1.5 mi Calm Calm - N/A   Overcast
7:54 AM 54.5 °F 54.5 °F 100% 29.95 in 1.2 mi SSE 5.8 mph - N/A Rain Rain
8:15 AM 54.5 °F 54.5 °F 100% 29.95 in 1.0 mi South 4.6 mph - N/A Rain Heavy Rain
8:35 AM 55.4 °F 55.4 °F 100% 29.92 in 1.2 mi SE 6.9 mph - N/A Rain Heavy Rain
8:55 AM 55.4 °F 55.4 °F 100% 29.91 in 1.2 mi SSE 9.2 mph - N/A Rain Rain
9:15 AM 56.3 °F 56.3 °F 100% 29.91 in 2.0 mi ESE 5.8 mph - N/A Rain Light Rain
9:34 AM 56.5 °F 56.5 °F 100% 29.90 in 2.0 mi SE 8.1 mph - N/A Rain Light Rain
9:55 AM 57.4 °F 57.4 °F 100% 29.93 in 1.8 mi SSW 3.5 mph - N/A Rain Heavy Rain
10:15 AM 57.6 °F 57.6 °F 100% 29.92 in 3.0 mi SE 4.6 mph - N/A Rain Heavy Rain
10:35 AM 57.6 °F 57.6 °F 100% 29.92 in 4.0 mi SE 6.9 mph - N/A Rain Light Rain
10:55 AM 58.1 °F 58.1 °F 100% 29.91 in 4.0 mi ESE 8.1 mph - N/A   Overcast
11:14 AM 58.6 °F 58.6 °F 100% 29.91 in 3.0 mi ESE 6.9 mph - N/A   Overcast
11:35 AM 59.9 °F 59.9 °F 100% 29.91 in 3.0 mi SE 10.4 mph - N/A   Overcast
11:55 AM 61.3 °F 61.2 °F 99% 29.89 in 4.0 mi SE 10.4 mph - N/A   Overcast
12:14 PM 63.1 °F 62.6 °F 98% 29.88 in 5.0 mi SE 11.5 mph - N/A   Overcast
12:35 PM 64.6 °F 63.5 °F 96% 29.88 in 5.0 mi SSE 9.2 mph 16.1 mph N/A   Overcast
12:55 PM 66.0 °F 63.9 °F 93% 29.88 in 5.0 mi SSE 9.2 mph - N/A   Overcast
1:14 PM 66.4 °F 64.4 °F 93% 29.87 in 5.0 mi SSE 9.2 mph - N/A   Overcast
1:35 PM 66.2 °F 63.9 °F 92% 29.87 in 4.0 mi SE 10.4 mph - N/A   Overcast
1:55 PM 65.7 °F 64.0 °F 94% 29.88 in 0.8 mi SSE 4.6 mph - N/A Rain Heavy Rain
2:14 PM 65.5 °F 64.6 °F 97% 29.85 in 1.8 mi SE 10.4 mph 16.1 mph N/A Rain Rain
2:35 PM 67.5 °F 66.6 °F 97% 29.86 in 4.0 mi SSE 6.9 mph - N/A Rain Rain
2:55 PM 68.7 °F 67.6 °F 96% 29.87 in 4.0 mi SE 4.6 mph - N/A   Overcast
3:15 PM 69.8 °F 68.4 °F 95% 29.88 in 4.0 mi Calm Calm - N/A   Overcast
3:35 PM 70.7 °F 69.1 °F 95% 29.87 in 5.0 mi SE 3.5 mph - N/A   Overcast
3:54 PM 70.5 °F 69.1 °F 95% 29.87 in 2.0 mi SSE 4.6 mph - N/A Rain Heavy Rain
4:15 PM 71.8 °F 70.0 °F 94% 29.86 in 10.0 mi SW 6.9 mph - N/A   Mostly Cloudy
4:35 PM 72.5 °F 69.8 °F 91% 29.85 in 7.0 mi Calm Calm - N/A   Mostly Cloudy
4:55 PM 72.7 °F 70.5 °F 93% 29.85 in 5.0 mi South 5.8 mph - N/A Rain Light Rain
5:15 PM 72.3 °F 70.7 °F 95% 29.84 in 4.0 mi Calm Calm - N/A   Overcast
5:35 PM 71.6 °F 70.0 °F 95% 29.84 in 1.2 mi SSE 3.5 mph - N/A Rain Heavy Rain
5:55 PM 70.7 °F 69.8 °F 97% 29.84 in 1.0 mi Calm Calm - N/A Rain Light Rain
6:15 PM 70.7 °F 69.8 °F 97% 29.84 in 2.0 mi SSW 5.8 mph - N/A Rain Light Rain
6:35 PM 71.6 °F 70.9 °F 98% 29.83 in 4.0 mi South 5.8 mph - N/A   Mostly Cloudy
6:55 PM 72.5 °F 71.4 °F 96% 29.83 in 7.0 mi South 5.8 mph - N/A   Clear
7:14 PM 72.3 °F 70.7 °F 95% 29.83 in 7.0 mi SSW 3.5 mph - N/A   Scattered Clouds
7:35 PM 73.0 °F 71.1 °F 93% 29.83 in 7.0 mi South 3.5 mph - N/A   Scattered Clouds
7:55 PM 73.4 °F 70.7 °F 91% 29.83 in 7.0 mi SSE 6.9 mph - N/A   Scattered Clouds
8:14 PM 72.7 °F 70.2 °F 92% 29.83 in 7.0 mi South 5.8 mph - N/A   Scattered Clouds
8:35 PM 72.1 °F 69.8 °F 92% 29.82 in 7.0 mi South 4.6 mph - N/A   Clear
8:55 PM 72.1 °F 69.8 °F 92% 29.81 in 7.0 mi South 8.1 mph - N/A   Mostly Cloudy
9:14 PM 72.9 °F 69.4 °F 89% 29.81 in 10.0 mi South 10.4 mph - N/A   Overcast
9:35 PM 73.4 °F 68.9 °F 86% 29.80 in 10.0 mi SSW 8.1 mph - N/A   Overcast
9:55 PM 73.4 °F 68.2 °F 84% 29.82 in 10.0 mi SSW 6.9 mph - N/A Rain Light Rain
10:14 PM 72.5 °F 68.5 °F 87% 29.83 in 7.0 mi SSW 8.1 mph - N/A Rain Heavy Rain
10:35 PM 71.2 °F 68.9 °F 92% 29.83 in 7.0 mi SW 3.5 mph - N/A Rain Rain
10:55 PM 70.7 °F 68.9 °F 94% 29.82 in 7.0 mi Calm Calm - N/A Rain Rain
11:14 PM 70.2 °F 68.9 °F 96% 29.82 in 7.0 mi Calm Calm - N/A Rain Light Rain
11:35 PM 69.8 °F 68.5 °F 96% 29.82 in 5.0 mi Calm Calm - N/A   Overcast
11:55 PM 71.2 °F 69.4 °F 94% 29.82 in 10.0 mi South 6.9 mph - N/A   Overcast